STARLINK-11465, 62057

Orbit data source: Space-Track

STARLINK-11465, 62057 is a payload satellite owned by SpaceX/Seattle (US) in LEO that was launched on Sun, 24 Nov 2024 UTC via an FALCON 9 launch vehicle from the Air Force Western Test Range (AFWTR). Payload-class satellites include a variety of spacecraft equipped with specific instruments for various scientific and technological missions. These include communications satellites like Starlink; space stations such as the ISS; scientific satellites like the Hubble; Earth observation satellites from companies like Planet Labs, Umbra, and HawkEye 360; GPS; miniature CubeSats for education and research; and military/defense satellites.

Loading next visibility...
Identifier
62057, 2024-217A
Orbit
LEO
Country
Flag of USUS
Related business
Manufacturer
SpaceX/Seattle
Mission
Operational Commercial Communications
Bus & Motor
STARLINK V2MD, Unknown motor
Mass
960 kg wet, ~910 kg dry
Launch date (UTC)
2024-11-24 (1 year ago)
Launch vehicle
FALCON 9
Launch site
Air Force Western Test Range (AFWTR)
Object type
Payload
Rocket body
Debris
Shape & HBR
Box + 2 Pan, 18.1 m
Radar Cross Section
36.964 m², Large (>1 m²)

Expand to show TLE details & history
Last TLE update: 9 hours ago

TLE from 9 hours ago
0 STARLINK-11465
1 62057U 24217A   26095.28624202  .00375664  00000-0  29520-2 0  9995
2 62057  53.1564 299.9381 0000876  20.2812 339.8241 15.69834914 79357
Epoch: 2026-04-05T06:52Z
TLE epoch observation values (Epoch: 2026-04-05T06:52:11.310Z)
Latitude
0.00001°
Longitude
3.29714°
Altitude
359.73 km
Speed
7.695 km/s
True Right ascension
19h 59m 45s
True Declination
0° 00' 00"
Sunlit
Object was in daylight at epoch
Visualization orbit readout
Latitude
Unknown
Longitude
Unknown
Altitude
Unknown
Speed
Unknown
Apparent Right ascension
Unknown
Apparent Declination
Unknown
Sunlit
N/A
Visualization observer readout
Local Sidereal Time
21:57:18
Azimuth
Unknown
Elevation
Unknown
Doppler factor
Unknown
Orbital elements
Apogee altitude
360.221 km
Perigee altitude
359.04 km
Semi-major axis
6,737.768 km
Eccentricity
0.00009
Inclination
53.1564°
RAAN
299.9381°
Arg. of periapsis
20.2812°
True anomaly
339.82064°
Mean anomaly
339.8241°
Eccentric anomaly
339.82237°
Mean motion
3.92436 °/min
Orbital period
91.73 mins
BSTAR
0.002952
Loading maneuver chart data...
Computing Atmospheric mass density...
Loading historical data...
Loading historical data...
Loading historical data...
Loading historical data...
Loading historical data...
Loading historical data...
Loading historical data...

Documentation

Showing up to 5 results
|